Weather History for KRCA - February, 2013

Change the Weather History Date:

Saturday, February 23, 2013

  Actual Average Record
Temperature  
Mean Temperature 30 °F -  
Max Temperature 44 °F 37 °F 57 °F (1999)
Min Temperature 16 °F 17 °F -9 °F (2003)
Degree Days  
Heating Degree Days 35    
Moisture  
Dew Point 14 °F    
Average Humidity 51    
Maximum Humidity 85    
Minimum Humidity 25    
Precipitation  
Precipitation 0.00 in - - ()
Sea Level Pressure  
Sea Level Pressure 29.75 in    
Wind  
Wind Speed 5 mph (NW)    
Max Wind Speed 10 mph    
Max Gust Speed -    
Visibility 10 miles    
Events      
Averages and records for this station are not official NWS values.
T = Trace of Precipitation, MM = Missing Value Source: NWS Daily Summary

Daily Weather History Graph

Daily Weather History Graph

Search for Another Location

Airport or City:

Trip Planner

Search our weather history database for the weather conditions in past years. The results will help you decide how hot, cold, wet, or windy it might be!

Date:

Astronomy

Feb. 23, 2013 Rise Set
Actual Time 6:38 AM MST 5:33 PM MST
Civil Twilight 6:09 AM MST 6:02 PM MST
Nautical Twilight 5:36 AM MST 6:36 PM MST
Astronomical Twilight 5:02 AM MST 7:09 PM MST
Moon 3:43 PM MST (2/23) 5:05 AM MST (2/23)
Length of Visible Light 11h 52m
Length of Day
10h 54m
Waxing Gibbous, 95% of the Moon is Illuminated
Feb 23
Waxing Gibbous
Feb 25
Full
Mar 4
Last Quarter
Mar 11
New
Mar 19
First Quarter

Hourly Weather History & Observations

Time (MST) Temp. Windchill Dew Point Humidity Pressure Visibility Wind Dir Wind Speed Gust Speed Precip Events Conditions
12:55 AM 22.3 °F 16.1 °F 12.2 °F 65% 29.81 in 10.0 mi SW 4.6 mph - N/A   Clear
1:55 AM 20.1 °F - 11.3 °F 69% 29.79 in 10.0 mi Calm Calm - N/A   Clear
2:55 AM 19.0 °F 7.5 °F 11.5 °F 72% 29.76 in 10.0 mi WSW 10.4 mph - N/A   Clear
3:55 AM 18.1 °F 12.9 °F 9.9 °F 70% 29.74 in 10.0 mi West 3.5 mph - N/A   Clear
4:55 AM 19.8 °F 13.2 °F 9.9 °F 65% 29.74 in 10.0 mi West 4.6 mph - N/A   Clear
5:55 AM 16.7 °F 9.6 °F 8.6 °F 70% 29.75 in 10.0 mi WNW 4.6 mph - N/A   Clear
6:55 AM 17.4 °F 7.1 °F 9.1 °F 70% 29.75 in 10.0 mi WNW 8.1 mph - N/A   Clear
7:55 AM 25.9 °F 17.4 °F 14.9 °F 63% 29.75 in 10.0 mi WNW 8.1 mph - N/A   Clear
8:55 AM 34.0 °F 31.0 °F 15.6 °F 47% 29.74 in 10.0 mi West 3.5 mph - N/A   Clear
9:55 AM 39.0 °F - 12.0 °F 33% 29.72 in 10.0 mi Calm Calm - N/A   Overcast
10:55 AM 42.3 °F - 11.1 °F 28% 29.71 in 10.0 mi Calm Calm - N/A   Overcast
11:55 AM 43.5 °F 39.4 °F 9.1 °F 25% 29.70 in 10.0 mi SE 6.9 mph - N/A   Mostly Cloudy
12:55 PM 44.1 °F 42.5 °F 11.3 °F 26% 29.68 in 10.0 mi Variable 3.5 mph - N/A   Overcast
1:55 PM 43.7 °F 40.3 °F 11.8 °F 27% 29.68 in 10.0 mi East 5.8 mph - N/A   Mostly Cloudy
2:55 PM 43.7 °F 40.3 °F 11.8 °F 27% 29.69 in 10.0 mi ESE 5.8 mph - N/A   Mostly Cloudy
3:55 PM 43.3 °F 39.2 °F 13.6 °F 30% 29.71 in 10.0 mi East 6.9 mph - N/A   Mostly Cloudy
4:55 PM 41.9 °F 39.0 °F 15.1 °F 34% 29.73 in 10.0 mi East 4.6 mph - N/A   Overcast
5:55 PM 39.9 °F 36.7 °F 16.0 °F 38% 29.76 in 10.0 mi NE 4.6 mph - N/A   Overcast
6:55 PM 37.4 °F 32.1 °F 15.3 °F 41% 29.78 in 10.0 mi East 6.9 mph - N/A   Mostly Cloudy
7:55 PM 33.1 °F - 18.9 °F 56% 29.80 in 10.0 mi Calm Calm - N/A   Overcast
8:55 PM 33.1 °F 28.7 °F 19.8 °F 58% 29.81 in 10.0 mi SSE 4.6 mph - N/A   Mostly Cloudy
9:55 PM 32.4 °F 26.0 °F 19.0 °F 58% 29.82 in 10.0 mi NNW 6.9 mph - N/A   Overcast
10:55 PM 34.3 °F 26.5 °F 27.9 °F 77% 29.81 in 10.0 mi NNW 10.4 mph - N/A   Overcast
11:55 PM 34.0 °F 27.2 °F 30.0 °F 85% 29.83 in 10.0 mi North 8.1 mph - N/A   Overcast